CAL51 RCTP-YBBN

Flight info

Callsign CAL51
Flight time N/A
Altitude 36000
Route TINHO1D TINHO B591 TACLE Q11 POTIB/N0494F380 M646 LAO/N0494F370 B462 MIA W11 MULOP/N0492F390 W11 MCT W8 DAO B473 OPABA B587 GULOP Y173 DOLIB T13 EML Y409 BESBO Y177 SMOKA
Aircraft A359/H-SDE2E3GHIJ3J4J5LM1ORWXY/LB1D1

Departure

Time N/A
Airport Taiwan Taoyuan International Airport (RCTP)

Arrival

Time 2026-05-04 02:22
Airport Brisbane International Airport (YBBN)
Time Latitude Longitude Altitude Speed Heading
2026-05-03 20:15 12.97712 122.11840 37896 ft 494 kts 146°
2026-05-03 20:15 12.92068 122.15851 37890 ft 494 kts 146°
2026-05-03 20:16 12.86416 122.19865 37892 ft 494 kts 146°
2026-05-03 20:16 12.80766 122.23875 37892 ft 494 kts 146°
2026-05-03 20:17 12.75156 122.27854 37895 ft 494 kts 146°
2026-05-03 20:17 12.69502 122.31863 37892 ft 494 kts 147°
2026-05-03 20:18 12.63856 122.35863 37889 ft 493 kts 146°
2026-05-03 20:18 12.58217 122.39857 37891 ft 493 kts 147°
2026-05-03 20:19 12.52612 122.43824 37894 ft 493 kts 147°
2026-05-03 20:19 12.46978 122.47809 37891 ft 492 kts 147°
2026-05-03 20:20 12.41342 122.51795 37889 ft 492 kts 146°
2026-05-03 20:20 12.35702 122.55783 37888 ft 493 kts 147°
2026-05-03 20:21 12.30070 122.59764 37890 ft 492 kts 147°
2026-05-03 20:21 12.24480 122.63705 37892 ft 492 kts 147°
2026-05-03 20:22 12.18847 122.67677 37895 ft 492 kts 146°
2026-05-03 20:22 12.13213 122.71648 37889 ft 492 kts 147°
2026-05-03 20:23 12.07582 122.75617 37889 ft 492 kts 147°
2026-05-03 20:23 12.01984 122.79560 37889 ft 492 kts 146°
2026-05-03 20:24 11.96349 122.83526 37888 ft 492 kts 146°
2026-05-03 20:24 11.90709 122.87496 37890 ft 492 kts 147°
2026-05-03 20:25 11.85063 122.91466 37884 ft 493 kts 147°
2026-05-03 20:25 11.79421 122.95432 37885 ft 494 kts 146°
2026-05-03 20:26 11.73791 122.99388 37884 ft 494 kts 146°
2026-05-03 20:26 11.68124 123.03368 37886 ft 494 kts 147°
2026-05-03 20:27 11.62472 123.07334 37886 ft 493 kts 146°
2026-05-03 20:27 11.56831 123.11292 37882 ft 492 kts 146°
2026-05-03 20:28 11.51230 123.15219 37887 ft 492 kts 147°
2026-05-03 20:28 11.45589 123.19172 37884 ft 493 kts 147°
2026-05-03 20:29 11.39943 123.23126 37885 ft 492 kts 146°
2026-05-03 20:29 11.34298 123.27079 37877 ft 492 kts 147°
2026-05-03 20:30 11.28701 123.30996 37882 ft 491 kts 147°
2026-05-03 20:30 11.23070 123.34935 37883 ft 491 kts 146°
2026-05-03 20:31 11.17438 123.38871 37882 ft 491 kts 147°
2026-05-03 20:31 11.11813 123.42803 37881 ft 490 kts 147°
2026-05-03 20:32 11.06225 123.46705 37881 ft 490 kts 147°
2026-05-03 20:32 11.00595 123.50635 37883 ft 491 kts 146°
2026-05-03 20:33 10.94972 123.54563 37884 ft 490 kts 146°
2026-05-03 20:33 10.89358 123.58476 37887 ft 489 kts 146°
2026-05-03 20:34 10.83780 123.62363 37885 ft 489 kts 146°
2026-05-03 20:34 10.78165 123.66275 37889 ft 489 kts 146°
2026-05-03 20:35 10.72547 123.70188 37885 ft 490 kts 146°
2026-05-03 20:35 10.66924 123.74103 37890 ft 490 kts 146°
2026-05-03 20:36 10.61345 123.77992 37889 ft 489 kts 146°
2026-05-03 20:36 10.55733 123.81893 37889 ft 489 kts 146°
2026-05-03 20:37 10.50121 123.85791 37888 ft 489 kts 146°
2026-05-03 20:37 10.44512 123.89688 37886 ft 489 kts 146°
2026-05-03 20:38 10.38897 123.93588 37883 ft 489 kts 146°
2026-05-03 20:38 10.33322 123.97458 37882 ft 489 kts 146°
2026-05-03 20:39 10.27438 124.00897 37884 ft 488 kts 152°
2026-05-03 20:39 10.21421 124.04108 37884 ft 489 kts 153°
2026-05-03 20:40 10.15385 124.07280 37883 ft 488 kts 153°
2026-05-03 20:40 10.09346 124.10456 37886 ft 489 kts 153°
2026-05-03 20:41 10.03354 124.13616 37886 ft 489 kts 153°
2026-05-03 20:41 9.97395 124.16761 37887 ft 489 kts 153°
2026-05-03 20:42 9.91355 124.19948 37889 ft 490 kts 153°
2026-05-03 20:42 9.85309 124.23136 37886 ft 489 kts 153°
2026-05-03 20:43 9.79308 124.26298 37887 ft 489 kts 153°
2026-05-03 20:43 9.73272 124.29478 37881 ft 489 kts 153°
2026-05-03 20:44 9.67235 124.32657 37883 ft 490 kts 153°
2026-05-03 20:44 9.61183 124.35842 37881 ft 490 kts 153°
2026-05-03 20:45 9.55184 124.39003 37880 ft 489 kts 153°
2026-05-03 20:45 9.49130 124.42190 37881 ft 491 kts 153°
2026-05-03 20:46 9.43061 124.45377 37876 ft 491 kts 153°
2026-05-03 20:46 9.37005 124.48557 37878 ft 490 kts 153°
2026-05-03 20:47 9.30968 124.51729 37872 ft 487 kts 153°
2026-05-03 20:47 9.25082 124.54820 37872 ft 488 kts 153°
2026-05-03 20:48 9.19067 124.57977 37867 ft 485 kts 153°
2026-05-03 20:48 9.13075 124.61122 37867 ft 485 kts 153°
2026-05-03 20:49 9.07077 124.64269 37874 ft 486 kts 153°
2026-05-03 20:49 9.01120 124.67393 37873 ft 486 kts 153°
2026-05-03 20:50 8.95116 124.70539 37876 ft 486 kts 153°
2026-05-03 20:50 8.89101 124.73687 37887 ft 486 kts 153°
2026-05-03 20:51 8.83088 124.76834 37889 ft 486 kts 153°
2026-05-03 20:51 8.77080 124.79983 37890 ft 486 kts 153°
2026-05-03 20:52 8.71114 124.83106 37896 ft 486 kts 153°
2026-05-03 20:52 8.65091 124.86252 37911 ft 488 kts 153°
2026-05-03 20:53 8.59055 124.89407 37912 ft 489 kts 153°
2026-05-03 20:53 8.53016 124.92564 37918 ft 489 kts 153°
2026-05-03 20:54 8.47019 124.95698 37933 ft 489 kts 153°
2026-05-03 20:54 8.37966 125.00427 37945 ft 488 kts 152°
2026-05-03 20:55 8.31958 125.03570 37948 ft 485 kts 152°
2026-05-03 20:55 8.25955 125.06700 37952 ft 486 kts 153°
2026-05-03 20:56 8.19977 125.09810 37954 ft 487 kts 153°
2026-05-03 20:56 8.13948 125.12948 37955 ft 489 kts 153°
2026-05-03 20:57 8.07909 125.16093 37948 ft 488 kts 152°
2026-05-03 20:57 8.01880 125.19232 37945 ft 489 kts 153°
2026-05-03 20:58 7.95862 125.22365 37944 ft 491 kts 153°
2026-05-03 20:58 7.89794 125.25524 37933 ft 491 kts 152°
2026-05-03 20:59 7.83724 125.28688 37937 ft 492 kts 152°
2026-05-03 20:59 7.77655 125.31852 37931 ft 491 kts 152°
2026-05-03 21:00 7.72613 125.34478 37935 ft 491 kts 152°
2026-05-03 21:00 7.65546 125.38158 37927 ft 492 kts 152°
2026-05-03 21:01 7.59461 125.41324 37925 ft 492 kts 152°
2026-05-03 21:01 7.53377 125.44490 37922 ft 492 kts 152°
2026-05-03 21:02 7.47333 125.47634 37921 ft 492 kts 152°
2026-05-03 21:02 7.41247 125.50800 37918 ft 492 kts 152°
2026-05-03 21:03 7.35156 125.53964 37917 ft 493 kts 152°
2026-05-03 21:03 7.29061 125.57125 37908 ft 493 kts 152°
2026-05-03 21:04 7.23005 125.60267 37906 ft 493 kts 152°
2026-05-03 21:04 7.16913 125.63427 37912 ft 493 kts 152°
2026-05-03 21:05 7.11088 125.67041 37912 ft 491 kts 143°
2026-05-03 21:05 7.05638 125.71185 37910 ft 490 kts 141°
2026-05-03 21:06 7.00305 125.75372 37897 ft 489 kts 141°
2026-05-03 21:06 6.94938 125.79592 37897 ft 490 kts 141°
2026-05-03 21:07 6.89564 125.83799 37892 ft 490 kts 141°
2026-05-03 21:07 6.84183 125.88004 37895 ft 490 kts 141°
2026-05-03 21:08 6.78794 125.92207 37894 ft 490 kts 141°
2026-05-03 21:08 6.73445 125.96374 37889 ft 490 kts 141°
2026-05-03 21:09 6.68060 126.00579 37889 ft 490 kts 141°
2026-05-03 21:09 6.62673 126.04776 37887 ft 490 kts 141°
2026-05-03 21:10 6.57285 126.08972 37886 ft 490 kts 141°
2026-05-03 21:10 6.51934 126.13140 37886 ft 490 kts 141°
2026-05-03 21:11 6.46545 126.17339 37884 ft 490 kts 141°
2026-05-03 21:11 6.41160 126.21534 37884 ft 490 kts 141°
2026-05-03 21:12 6.35771 126.25729 37882 ft 490 kts 141°
2026-05-03 21:12 6.30387 126.29919 37885 ft 489 kts 141°
2026-05-03 21:13 6.25044 126.34077 37883 ft 488 kts 141°
2026-05-03 21:13 6.19672 126.38257 37883 ft 489 kts 141°
2026-05-03 21:14 6.14295 126.42439 37884 ft 489 kts 141°
2026-05-03 21:14 6.08912 126.46625 37881 ft 490 kts 141°
2026-05-03 21:15 6.03561 126.50785 37881 ft 490 kts 141°
2026-05-03 21:15 5.98168 126.54976 37881 ft 490 kts 141°
2026-05-03 21:16 5.92777 126.59165 37881 ft 490 kts 141°
2026-05-03 21:16 5.87385 126.63353 37881 ft 490 kts 141°
2026-05-03 21:17 5.82904 126.66833 37877 ft 490 kts 141°
2026-05-03 21:17 5.76633 126.71702 37878 ft 490 kts 142°
2026-05-03 21:18 5.71236 126.75891 37881 ft 490 kts 142°
2026-05-03 21:18 5.65839 126.80079 37881 ft 490 kts 141°
2026-05-03 21:19 5.60478 126.84238 37881 ft 490 kts 142°
2026-05-03 21:19 5.55081 126.88424 37881 ft 490 kts 142°
2026-05-03 21:20 5.49685 126.92608 37881 ft 490 kts 142°
2026-05-03 21:20 5.44283 126.96797 37881 ft 490 kts 142°
2026-05-03 21:21 5.38882 127.00983 37881 ft 491 kts 142°
2026-05-03 21:21 5.33518 127.05140 37881 ft 491 kts 142°
2026-05-03 21:22 5.28113 127.09327 37884 ft 491 kts 142°
2026-05-03 21:22 5.22710 127.13511 37884 ft 491 kts 142°
2026-05-03 21:23 5.17306 127.17696 37876 ft 491 kts 142°
2026-05-03 21:23 5.11937 127.21853 37875 ft 491 kts 142°
2026-05-03 21:24 5.06531 127.26038 37878 ft 491 kts 142°
2026-05-03 21:24 5.01122 127.30224 37879 ft 491 kts 142°
2026-05-03 21:25 4.95713 127.34409 37878 ft 491 kts 142°
2026-05-03 21:25 4.90340 127.38565 37879 ft 491 kts 142°
2026-05-03 21:26 4.84930 127.42749 37878 ft 491 kts 142°
2026-05-03 21:26 4.79526 127.46927 37878 ft 490 kts 142°
2026-05-03 21:27 4.74132 127.51097 37878 ft 490 kts 142°
2026-05-03 21:27 4.68760 127.55249 37878 ft 491 kts 142°
2026-05-03 21:28 4.63354 127.59427 37881 ft 491 kts 142°
2026-05-03 21:28 4.57945 127.63606 37880 ft 491 kts 142°
2026-05-03 21:29 4.52539 127.67781 37881 ft 491 kts 142°
2026-05-03 21:29 4.47135 127.71955 37881 ft 490 kts 142°
2026-05-03 21:30 4.41771 127.76097 37881 ft 490 kts 142°
2026-05-03 21:30 4.36368 127.80268 37881 ft 490 kts 142°
2026-05-03 21:31 4.30964 127.84439 37881 ft 490 kts 142°
2026-05-03 21:31 4.25560 127.88609 37881 ft 490 kts 142°
2026-05-03 21:32 4.20193 127.92751 37885 ft 490 kts 142°
2026-05-03 21:32 4.14794 127.96916 37885 ft 490 kts 142°
2026-05-03 21:33 4.09395 128.01080 37884 ft 490 kts 142°
2026-05-03 21:33 4.03997 128.05243 37883 ft 490 kts 142°
2026-05-03 21:34 3.98605 128.09400 37883 ft 490 kts 142°
2026-05-03 21:34 3.93214 128.13497 37884 ft 490 kts 142°
2026-05-03 21:35 3.87773 128.17604 37887 ft 489 kts 142°
2026-05-03 21:35 3.82349 128.21704 37886 ft 488 kts 142°
2026-05-03 21:36 3.76927 128.25809 37886 ft 488 kts 142°
2026-05-03 21:36 3.71544 128.29888 37887 ft 488 kts 142°
2026-05-03 21:37 3.66126 128.33993 37887 ft 488 kts 142°
2026-05-03 21:37 3.60708 128.38096 37886 ft 488 kts 142°
2026-05-03 21:38 3.55289 128.42199 37884 ft 488 kts 142°
2026-05-03 21:38 3.49879 128.46295 37883 ft 487 kts 142°
2026-05-03 21:39 3.44511 128.50359 37889 ft 487 kts 142°
2026-05-03 21:39 3.39102 128.54453 37889 ft 487 kts 142°
2026-05-03 21:40 3.33697 128.58543 37887 ft 487 kts 142°
2026-05-03 21:40 3.28289 128.62635 37887 ft 487 kts 142°
2026-05-03 21:41 3.22881 128.66726 37885 ft 487 kts 142°
2026-05-03 21:41 3.17511 128.70788 37887 ft 487 kts 142°
2026-05-03 21:42 3.12101 128.74880 37887 ft 487 kts 142°
2026-05-03 21:42 3.06691 128.78971 37887 ft 487 kts 142°
2026-05-03 21:43 3.01281 128.83062 37889 ft 487 kts 142°
2026-05-03 21:43 2.95912 128.87121 37888 ft 487 kts 142°
2026-05-03 21:44 2.90511 128.91204 37889 ft 486 kts 142°
2026-05-03 21:44 2.85116 128.95281 37889 ft 486 kts 142°
2026-05-03 21:45 2.79720 128.99360 37889 ft 486 kts 142°
2026-05-03 21:45 2.74322 129.03439 37889 ft 486 kts 142°
2026-05-03 21:46 2.68962 129.07489 37890 ft 486 kts 142°
2026-05-03 21:46 2.63566 129.11566 37889 ft 486 kts 142°
2026-05-03 21:47 2.58172 129.15641 37889 ft 486 kts 142°
2026-05-03 21:47 2.52774 129.19718 37889 ft 486 kts 142°
2026-05-03 21:48 2.47408 129.23770 37894 ft 486 kts 142°
2026-05-03 21:48 2.42008 129.27848 37895 ft 486 kts 142°
2026-05-03 21:49 2.36609 129.31925 37895 ft 487 kts 142°
2026-05-03 21:49 2.31206 129.36004 37895 ft 487 kts 142°
2026-05-03 21:50 2.25806 129.40081 37892 ft 486 kts 142°
2026-05-03 21:50 2.20441 129.44131 37892 ft 486 kts 142°
2026-05-03 21:51 2.15040 129.48208 37892 ft 487 kts 142°
2026-05-03 21:51 2.09638 129.52285 37894 ft 487 kts 142°
2026-05-03 21:52 2.04234 129.56362 37895 ft 486 kts 142°
2026-05-03 21:52 1.98868 129.60412 37894 ft 482 kts 142°
2026-05-03 21:53 1.93582 129.64431 37897 ft 481 kts 141°
2026-05-03 21:53 1.88365 129.68616 37897 ft 480 kts 140°
2026-05-03 21:54 1.83177 129.72830 37897 ft 481 kts 140°
2026-05-03 21:54 1.77977 129.77024 37898 ft 481 kts 140°
2026-05-03 21:55 1.72796 129.81179 37898 ft 481 kts 140°
2026-05-03 21:55 1.67572 129.85364 37898 ft 481 kts 140°
2026-05-03 21:56 1.62350 129.89547 37895 ft 481 kts 140°
2026-05-03 21:56 1.57127 129.93733 37895 ft 481 kts 140°
2026-05-03 21:57 1.51940 129.97889 37897 ft 481 kts 140°
2026-05-03 21:57 1.46711 130.02078 37897 ft 481 kts 140°
2026-05-03 21:58 1.41491 130.06261 37898 ft 481 kts 140°
2026-05-03 21:58 1.36270 130.10443 37898 ft 481 kts 140°
2026-05-03 21:59 1.31049 130.14625 37897 ft 481 kts 140°
2026-05-03 21:59 1.25864 130.18779 37898 ft 481 kts 140°
2026-05-03 22:00 1.20645 130.22959 37900 ft 481 kts 140°
2026-05-03 22:00 1.15428 130.27137 37899 ft 481 kts 140°
2026-05-03 22:01 1.10203 130.31322 37898 ft 482 kts 140°
2026-05-03 22:01 1.04969 130.35515 37898 ft 482 kts 140°
2026-05-03 22:02 0.99773 130.39675 37897 ft 482 kts 140°
2026-05-03 22:02 0.94542 130.43864 37898 ft 482 kts 140°
2026-05-03 22:03 0.90190 130.47349 37897 ft 482 kts 140°
2026-05-03 22:03 0.84957 130.51539 37900 ft 483 kts 140°
2026-05-03 22:04 0.79709 130.55742 37897 ft 483 kts 140°
2026-05-03 22:04 0.73611 130.60624 37898 ft 484 kts 140°
2026-05-03 22:05 0.69246 130.64119 37900 ft 484 kts 140°
2026-05-03 22:05 0.63999 130.68320 37900 ft 484 kts 140°
2026-05-03 22:06 0.58749 130.72523 37900 ft 484 kts 140°
2026-05-03 22:06 0.53500 130.76726 37900 ft 483 kts 141°
2026-05-03 22:07 0.48258 130.80922 37900 ft 483 kts 141°
2026-05-03 22:07 0.43049 130.85092 37900 ft 483 kts 141°
2026-05-03 22:08 0.37806 130.89289 37900 ft 483 kts 141°
2026-05-03 22:08 0.32564 130.93486 37901 ft 483 kts 140°
2026-05-03 22:09 0.27310 130.97691 37900 ft 484 kts 140°
2026-05-03 22:10 0.19471 131.03967 37906 ft 484 kts 140°
2026-05-03 22:10 0.14216 131.08174 37906 ft 484 kts 140°
2026-05-03 22:11 0.08961 131.12380 37903 ft 484 kts 140°
2026-05-03 22:11 0.03705 131.16588 37903 ft 485 kts 140°
2026-05-03 22:12 -0.01530 131.20779 37907 ft 485 kts 141°
2026-05-03 22:12 -0.06794 131.24992 37908 ft 485 kts 141°
2026-05-03 22:13 -0.12058 131.29205 37906 ft 485 kts 141°
2026-05-03 22:13 -0.17317 131.33415 37905 ft 485 kts 141°
2026-05-03 22:14 -0.22542 131.37598 37907 ft 485 kts 141°
2026-05-03 22:14 -0.27805 131.41811 37908 ft 485 kts 141°
2026-05-03 22:15 -0.33065 131.46023 37903 ft 484 kts 141°
2026-05-03 22:15 -0.38315 131.50225 37905 ft 483 kts 141°
2026-05-03 22:16 -0.43528 131.54398 37906 ft 483 kts 141°
2026-05-03 22:16 -0.48773 131.58597 37905 ft 483 kts 141°
2026-05-03 22:17 -0.54021 131.62798 37908 ft 484 kts 141°
2026-05-03 22:17 -0.59274 131.67004 37908 ft 483 kts 141°
2026-05-03 22:18 -0.64510 131.71196 37913 ft 482 kts 141°
2026-05-03 22:18 -0.69708 131.75357 37916 ft 482 kts 141°
2026-05-03 22:19 -0.74939 131.79546 37920 ft 483 kts 141°
2026-05-03 22:19 -0.80190 131.83750 37922 ft 484 kts 141°
2026-05-03 22:20 -0.85440 131.87954 37926 ft 484 kts 141°
2026-05-03 22:20 -0.90657 131.92131 37924 ft 484 kts 141°
2026-05-03 22:21 -0.95908 131.96336 37930 ft 484 kts 141°
2026-05-03 22:21 -1.01159 132.00540 37931 ft 484 kts 141°
2026-05-03 22:22 -1.06423 132.04757 37933 ft 485 kts 141°
2026-05-03 22:22 -1.11696 132.08980 37933 ft 486 kts 141°
2026-05-03 22:23 -1.16932 132.13173 37936 ft 486 kts 141°
2026-05-03 22:23 -1.22211 132.17401 37935 ft 487 kts 141°
2026-05-03 22:24 -1.27494 132.21633 37927 ft 487 kts 141°
2026-05-03 22:24 -1.32774 132.25863 37928 ft 486 kts 141°
2026-05-03 22:25 -1.38055 132.30093 37925 ft 486 kts 141°
2026-05-03 22:25 -1.43302 132.34297 37924 ft 487 kts 141°
2026-05-03 22:26 -1.48600 132.38542 37920 ft 489 kts 141°
2026-05-03 22:26 -1.53902 132.42790 37920 ft 488 kts 141°
2026-05-03 22:27 -1.59200 132.47035 37917 ft 488 kts 141°
2026-05-03 22:27 -1.64464 132.51253 37916 ft 488 kts 141°
2026-05-03 22:28 -1.69760 132.55498 37916 ft 488 kts 141°
2026-05-03 22:28 -1.75081 132.59762 37917 ft 492 kts 141°
2026-05-03 22:29 -1.80418 132.64040 37913 ft 492 kts 141°
2026-05-03 22:29 -1.85760 132.68322 37914 ft 492 kts 141°
2026-05-03 22:30 -1.91063 132.72573 37917 ft 492 kts 141°
2026-05-03 22:30 -1.96402 132.76853 37909 ft 492 kts 141°
2026-05-03 22:31 -2.01741 132.81134 37916 ft 492 kts 141°
2026-05-03 22:31 -2.07076 132.85411 37914 ft 492 kts 141°
2026-05-03 22:32 -2.12379 132.89664 37913 ft 492 kts 141°
2026-05-03 22:32 -2.17714 132.93943 37913 ft 492 kts 141°
2026-05-03 22:33 -2.23053 132.98224 37917 ft 492 kts 141°
2026-05-03 22:33 -2.28400 133.02514 37920 ft 493 kts 141°
2026-05-03 22:34 -2.33758 133.06812 37916 ft 495 kts 141°
2026-05-03 22:34 -2.39088 133.11088 37914 ft 495 kts 141°
2026-05-03 22:35 -2.44457 133.15397 37917 ft 495 kts 141°
2026-05-03 22:35 -2.49826 133.19705 37916 ft 495 kts 141°
2026-05-03 22:36 -2.55194 133.24013 37916 ft 495 kts 141°
2026-05-03 22:36 -2.60521 133.28288 37917 ft 494 kts 141°
2026-05-03 22:37 -2.65880 133.32590 37915 ft 494 kts 141°
2026-05-03 22:37 -2.71236 133.36890 37917 ft 494 kts 141°
2026-05-03 22:38 -2.76593 133.41191 37924 ft 494 kts 141°
2026-05-03 22:38 -2.81911 133.45461 37923 ft 493 kts 141°
2026-05-03 22:39 -2.87250 133.49749 37923 ft 492 kts 141°
2026-05-03 22:39 -2.92532 133.53992 37919 ft 492 kts 141°
2026-05-03 22:40 -2.97863 133.58275 37923 ft 492 kts 141°
2026-05-03 22:40 -3.03186 133.62500 37927 ft 492 kts 142°
2026-05-03 22:41 -3.08653 133.66598 37922 ft 491 kts 143°
2026-05-03 22:41 -3.14128 133.70666 37932 ft 490 kts 143°
2026-05-03 22:42 -3.19587 133.74757 37934 ft 490 kts 143°
2026-05-03 22:42 -3.24999 133.78836 37940 ft 490 kts 143°
2026-05-03 22:43 -3.30441 133.82944 37939 ft 490 kts 143°
2026-05-03 22:43 -3.35880 133.87049 37944 ft 490 kts 143°
2026-05-03 22:44 -3.41317 133.91151 37943 ft 489 kts 143°
2026-05-03 22:44 -3.46757 133.95256 37944 ft 489 kts 143°
2026-05-03 22:45 -3.52156 133.99331 37945 ft 490 kts 143°
2026-05-03 22:45 -3.57593 134.03435 37942 ft 489 kts 143°
2026-05-03 22:46 -3.63037 134.07545 37943 ft 490 kts 143°
2026-05-03 22:46 -3.68486 134.11659 37945 ft 491 kts 143°
2026-05-03 22:47 -3.73895 134.15744 37939 ft 491 kts 143°
2026-05-03 22:47 -3.79338 134.19855 37940 ft 491 kts 143°
2026-05-03 22:48 -3.84789 134.23973 37933 ft 491 kts 143°
2026-05-03 22:48 -3.90233 134.28087 37931 ft 491 kts 143°
2026-05-03 22:49 -3.95684 134.32206 37921 ft 491 kts 143°
2026-05-03 22:49 -4.01096 134.36296 37924 ft 491 kts 143°
2026-05-03 22:50 -4.06547 134.40417 37922 ft 491 kts 143°
2026-05-03 22:50 -4.11995 134.44536 37919 ft 490 kts 143°
2026-05-03 22:51 -4.17432 134.48647 37917 ft 490 kts 143°
2026-05-03 22:51 -4.22829 134.52729 37918 ft 489 kts 143°
2026-05-03 22:52 -4.28264 134.56840 37911 ft 489 kts 143°
2026-05-03 22:52 -4.33702 134.60954 37915 ft 490 kts 143°
2026-05-03 22:53 -4.39133 134.65065 37913 ft 490 kts 143°
2026-05-03 22:53 -4.44534 134.69152 37911 ft 489 kts 143°
2026-05-03 22:54 -4.49964 134.73263 37913 ft 489 kts 143°
2026-05-03 22:54 -4.55395 134.77376 37912 ft 489 kts 143°
2026-05-03 22:55 -4.60830 134.81491 37911 ft 490 kts 143°
2026-05-03 22:55 -4.66236 134.85586 37912 ft 491 kts 143°
2026-05-03 22:56 -4.71684 134.89714 37910 ft 491 kts 143°
2026-05-03 22:56 -4.77134 134.93844 37911 ft 491 kts 143°
2026-05-03 22:57 -4.82583 134.97974 37910 ft 491 kts 143°
2026-05-03 22:57 -4.88033 135.02105 37911 ft 492 kts 143°
2026-05-03 22:58 -4.93457 135.06218 37909 ft 492 kts 143°
2026-05-03 22:58 -4.98914 135.10356 37910 ft 492 kts 143°
2026-05-03 22:59 -5.04371 135.14496 37913 ft 492 kts 143°
2026-05-03 22:59 -5.09797 135.18613 37913 ft 492 kts 143°
2026-05-03 23:00 -5.15255 135.22755 37913 ft 492 kts 143°
2026-05-03 23:00 -5.20711 135.26897 37915 ft 492 kts 143°
2026-05-03 23:01 -5.26166 135.31038 37913 ft 492 kts 143°
2026-05-03 23:01 -5.31582 135.35151 37908 ft 492 kts 143°
2026-05-03 23:02 -5.37039 135.39296 37912 ft 492 kts 143°
2026-05-03 23:02 -5.42495 135.43441 37915 ft 492 kts 143°
2026-05-03 23:03 -5.47952 135.47588 37913 ft 492 kts 143°
2026-05-03 23:03 -5.53406 135.51734 37911 ft 492 kts 143°
2026-05-03 23:04 -5.58826 135.55855 37915 ft 492 kts 143°
2026-05-03 23:04 -5.64276 135.59999 37916 ft 492 kts 143°
2026-05-03 23:05 -5.69735 135.64151 37913 ft 492 kts 143°
2026-05-03 23:05 -5.75187 135.68299 37913 ft 491 kts 143°
2026-05-03 23:06 -5.80592 135.72413 37914 ft 490 kts 143°
2026-05-03 23:06 -5.86023 135.76547 37914 ft 490 kts 143°
2026-05-03 23:07 -5.91457 135.80684 37911 ft 490 kts 143°
2026-05-03 23:07 -5.96886 135.84819 37914 ft 490 kts 143°
2026-05-03 23:08 -6.02307 135.88948 37917 ft 489 kts 142°
2026-05-03 23:08 -6.07689 135.93049 37916 ft 488 kts 142°
2026-05-03 23:09 -6.13099 135.97173 37914 ft 488 kts 142°
2026-05-03 23:09 -6.18504 136.01294 37914 ft 488 kts 142°
2026-05-03 23:10 -6.23913 136.05419 37916 ft 488 kts 142°
2026-05-03 23:10 -6.29284 136.09516 37917 ft 488 kts 142°
2026-05-03 23:11 -6.34687 136.13638 37917 ft 488 kts 142°
2026-05-03 23:11 -6.40097 136.17767 37915 ft 489 kts 142°
2026-05-03 23:12 -6.45517 136.21905 37916 ft 490 kts 142°
2026-05-03 23:12 -6.50951 136.26054 37920 ft 491 kts 142°
2026-05-03 23:13 -6.56349 136.30177 37920 ft 491 kts 142°
2026-05-03 23:13 -6.61789 136.34333 37920 ft 491 kts 142°
2026-05-03 23:14 -6.67245 136.38503 37922 ft 494 kts 142°
2026-05-03 23:14 -6.72719 136.42688 37922 ft 494 kts 142°
2026-05-03 23:15 -6.78153 136.46843 37924 ft 494 kts 142°
2026-05-03 23:15 -6.83614 136.51020 37922 ft 494 kts 142°
2026-05-03 23:16 -6.89080 136.55203 37921 ft 494 kts 142°
2026-05-03 23:16 -6.94556 136.59393 37925 ft 496 kts 142°
2026-05-03 23:17 -7.00016 136.63574 37927 ft 497 kts 142°
2026-05-03 23:17 -7.05513 136.67784 37924 ft 497 kts 142°
2026-05-03 23:18 -7.11018 136.72001 37923 ft 497 kts 142°
2026-05-03 23:18 -7.16515 136.76213 37928 ft 497 kts 142°
2026-05-03 23:19 -7.22014 136.80428 37930 ft 498 kts 141°
2026-05-03 23:19 -7.27510 136.84644 37931 ft 501 kts 142°
2026-05-03 23:20 -7.33059 136.88899 37932 ft 501 kts 141°
2026-05-03 23:20 -7.38616 136.93162 37933 ft 503 kts 141°
2026-05-03 23:21 -7.44171 136.97427 37929 ft 501 kts 141°
2026-05-03 23:21 -7.49680 137.01656 37930 ft 502 kts 142°
2026-05-03 23:22 -7.58000 137.08046 37934 ft 501 kts 141°
2026-05-03 23:22 -7.63552 137.12311 37936 ft 503 kts 141°
2026-05-03 23:23 -7.69077 137.16559 37936 ft 502 kts 141°
2026-05-03 23:23 -7.74646 137.20842 37940 ft 504 kts 141°
2026-05-03 23:24 -7.80216 137.25127 37940 ft 504 kts 142°
2026-05-03 23:24 -7.85786 137.29411 37941 ft 506 kts 141°
2026-05-03 23:25 -7.91394 137.33730 37941 ft 506 kts 141°
2026-05-03 23:25 -7.96940 137.37999 37941 ft 504 kts 141°
2026-05-03 23:26 -8.02543 137.42315 37944 ft 508 kts 142°
2026-05-03 23:26 -8.08163 137.46644 37944 ft 509 kts 141°
2026-05-03 23:27 -8.13797 137.50987 37948 ft 510 kts 141°
2026-05-03 23:27 -8.19391 137.55300 37947 ft 508 kts 141°
2026-05-03 23:28 -8.25010 137.59635 37943 ft 508 kts 142°
2026-05-03 23:28 -8.30616 137.63961 37947 ft 506 kts 142°
2026-05-03 23:29 -8.36215 137.68283 37951 ft 507 kts 142°
2026-05-03 23:29 -8.41775 137.72576 37952 ft 507 kts 141°
2026-05-03 23:30 -8.47382 137.76907 37950 ft 508 kts 141°
2026-05-03 23:30 -8.52982 137.81236 37952 ft 506 kts 141°
2026-05-03 23:31 -8.58572 137.85558 37954 ft 506 kts 142°
2026-05-03 23:31 -8.64136 137.89861 37950 ft 503 kts 141°
2026-05-03 23:32 -8.69670 137.94142 37957 ft 506 kts 142°
2026-05-03 23:32 -8.75250 137.98461 37958 ft 505 kts 141°
2026-05-03 23:33 -8.80835 138.02786 37956 ft 507 kts 141°
2026-05-03 23:33 -8.86583 138.06953 37959 ft 510 kts 149°
2026-05-03 23:34 -8.92729 138.10431 37954 ft 508 kts 151°
2026-05-03 23:34 -8.98979 138.13809 37957 ft 511 kts 151°
2026-05-03 23:35 -9.05268 138.17189 37961 ft 512 kts 152°
2026-05-03 23:35 -9.11561 138.20586 37959 ft 513 kts 151°
2026-05-03 23:36 -9.17825 138.23980 37961 ft 516 kts 151°
2026-05-03 23:36 -9.24152 138.27411 37962 ft 515 kts 151°
2026-05-03 23:37 -9.30466 138.30835 37959 ft 515 kts 151°
2026-05-03 23:37 -9.36787 138.34265 37958 ft 516 kts 151°
2026-05-03 23:38 -9.43076 138.37679 37959 ft 515 kts 151°
2026-05-03 23:38 -9.49404 138.41115 37963 ft 517 kts 151°
2026-05-03 23:39 -9.55741 138.44558 37965 ft 517 kts 151°
2026-05-03 23:39 -9.62069 138.47996 37965 ft 516 kts 151°
2026-05-03 23:40 -9.68404 138.51442 37962 ft 517 kts 151°
2026-05-03 23:40 -9.74698 138.54866 37963 ft 517 kts 151°
2026-05-03 23:41 -9.81038 138.58316 37967 ft 517 kts 151°
2026-05-03 23:41 -9.87382 138.61770 37967 ft 517 kts 151°
2026-05-03 23:42 -9.93720 138.65222 37967 ft 517 kts 151°
2026-05-03 23:42 -10.00062 138.68678 37967 ft 518 kts 151°
2026-05-03 23:43 -10.06368 138.72116 37967 ft 518 kts 151°
2026-05-03 23:43 -10.12711 138.75575 37967 ft 518 kts 151°
2026-05-03 23:44 -10.19060 138.79039 37969 ft 518 kts 151°
2026-05-03 23:44 -10.25404 138.82503 37974 ft 518 kts 151°
2026-05-03 23:45 -10.31707 138.85945 37973 ft 518 kts 151°
2026-05-03 23:45 -10.38052 138.89412 37970 ft 517 kts 151°
2026-05-03 23:46 -10.44390 138.92877 37972 ft 518 kts 151°
2026-05-03 23:46 -10.50738 138.96348 37974 ft 518 kts 151°
2026-05-03 23:47 -10.57074 138.99815 37969 ft 518 kts 151°
2026-05-03 23:47 -10.63376 139.03265 37975 ft 518 kts 151°
2026-05-03 23:48 -10.69713 139.06736 37974 ft 518 kts 151°
2026-05-03 23:48 -10.76054 139.10211 37976 ft 518 kts 151°
2026-05-03 23:49 -10.82393 139.13686 37978 ft 518 kts 151°
2026-05-03 23:49 -10.88734 139.17164 37979 ft 518 kts 151°
2026-05-03 23:50 -10.94007 139.20058 37977 ft 518 kts 151°
2026-05-03 23:50 -11.01382 139.24113 37973 ft 518 kts 151°
2026-05-03 23:51 -11.07729 139.27607 37977 ft 518 kts 151°
2026-05-03 23:51 -11.14072 139.31101 37981 ft 519 kts 151°
2026-05-03 23:52 -11.20420 139.34598 37978 ft 518 kts 151°
2026-05-03 23:52 -11.26720 139.38072 37981 ft 518 kts 151°
2026-05-03 23:53 -11.33065 139.41571 37980 ft 519 kts 151°
2026-05-03 23:53 -11.39410 139.45073 37980 ft 519 kts 151°
2026-05-03 23:54 -11.45755 139.48576 37984 ft 519 kts 151°
2026-05-03 23:54 -11.52104 139.52084 37984 ft 520 kts 151°
2026-05-03 23:55 -11.58410 139.55569 37985 ft 519 kts 151°
2026-05-03 23:55 -11.64755 139.59078 37985 ft 518 kts 151°
2026-05-03 23:56 -11.71096 139.62586 37986 ft 518 kts 151°
2026-05-03 23:56 -11.77429 139.66092 37989 ft 518 kts 151°
2026-05-03 23:57 -11.83730 139.69582 37991 ft 518 kts 151°
2026-05-03 23:57 -11.90064 139.73092 37992 ft 518 kts 151°
2026-05-03 23:58 -11.96398 139.76604 37991 ft 518 kts 151°
2026-05-03 23:58 -12.02731 139.80117 37994 ft 518 kts 151°
2026-05-03 23:59 -12.09064 139.83633 37994 ft 518 kts 152°
2026-05-03 23:59 -12.15369 139.87135 37992 ft 520 kts 152°
2026-05-04 00:00 -12.21729 139.90668 37996 ft 521 kts 152°
2026-05-04 00:00 -12.28094 139.94207 37996 ft 521 kts 152°
2026-05-04 00:01 -12.34458 139.97747 37993 ft 520 kts 152°
2026-05-04 00:01 -12.40778 140.01265 37995 ft 521 kts 152°
2026-05-04 00:02 -12.47152 140.04815 37996 ft 522 kts 152°
2026-05-04 00:02 -12.53534 140.08370 37993 ft 522 kts 152°
2026-05-04 00:03 -12.59919 140.11930 38000 ft 522 kts 152°
2026-05-04 00:03 -12.66259 140.15467 38001 ft 522 kts 152°
2026-05-04 00:04 -12.72639 140.19029 37998 ft 523 kts 152°
2026-05-04 00:04 -12.79030 140.22597 37998 ft 523 kts 152°
2026-05-04 00:05 -12.85424 140.26170 38005 ft 523 kts 152°
2026-05-04 00:05 -12.91776 140.29722 38002 ft 523 kts 152°
2026-05-04 00:06 -12.98167 140.33297 38004 ft 523 kts 152°
2026-05-04 00:06 -13.04563 140.36878 38006 ft 524 kts 153°
2026-05-04 00:07 -13.10965 140.40464 38007 ft 525 kts 153°
2026-05-04 00:07 -13.17371 140.44054 38007 ft 524 kts 153°
2026-05-04 00:08 -13.23732 140.47621 38007 ft 524 kts 153°
2026-05-04 00:08 -13.30129 140.51211 38006 ft 524 kts 153°
2026-05-04 00:09 -13.36532 140.54806 38007 ft 525 kts 153°
2026-05-04 00:09 -13.42934 140.58403 38007 ft 525 kts 153°
2026-05-04 00:10 -13.49297 140.61980 38012 ft 525 kts 153°
2026-05-04 00:10 -13.55698 140.65580 38012 ft 525 kts 153°
2026-05-04 00:11 -13.62097 140.69182 38012 ft 524 kts 153°
2026-05-04 00:11 -13.68480 140.72777 38012 ft 522 kts 152°
2026-05-04 00:12 -13.74839 140.76361 38015 ft 521 kts 152°
2026-05-04 00:12 -13.81153 140.79922 38015 ft 521 kts 152°
2026-05-04 00:13 -13.87507 140.83507 38015 ft 521 kts 152°
2026-05-04 00:13 -13.93860 140.87094 38015 ft 521 kts 152°
2026-05-04 00:14 -14.00239 140.90697 38016 ft 526 kts 152°
2026-05-04 00:14 -14.06678 140.94337 38018 ft 529 kts 152°
2026-05-04 00:15 -14.13082 140.97960 38020 ft 529 kts 152°
2026-05-04 00:15 -14.19525 141.01608 38018 ft 528 kts 152°
2026-05-04 00:16 -14.25970 141.05259 38018 ft 528 kts 152°
2026-05-04 00:16 -14.32413 141.08911 38020 ft 528 kts 152°
2026-05-04 00:17 -14.38810 141.12539 38018 ft 528 kts 152°
2026-05-04 00:17 -14.45241 141.16189 38015 ft 527 kts 152°
2026-05-04 00:18 -14.51669 141.19840 38017 ft 527 kts 152°
2026-05-04 00:18 -14.58097 141.23493 38021 ft 528 kts 152°
2026-05-04 00:19 -14.64552 141.27164 38018 ft 531 kts 152°
2026-05-04 00:19 -14.70976 141.30820 38020 ft 531 kts 152°
2026-05-04 00:20 -14.77449 141.34506 38024 ft 531 kts 152°
2026-05-04 00:20 -14.83919 141.38193 38020 ft 531 kts 152°
2026-05-04 00:21 -14.90386 141.41881 38022 ft 531 kts 152°
2026-05-04 00:21 -14.96814 141.45549 38020 ft 531 kts 152°
2026-05-04 00:22 -15.03281 141.49242 38022 ft 531 kts 152°
2026-05-04 00:22 -15.09747 141.52937 38024 ft 531 kts 152°
2026-05-04 00:23 -15.16179 141.56615 38024 ft 531 kts 152°
2026-05-04 00:23 -15.22604 141.60293 38025 ft 531 kts 153°
2026-05-04 00:24 -15.29064 141.63992 38028 ft 531 kts 153°
2026-05-04 00:24 -15.35526 141.67695 38031 ft 531 kts 153°
2026-05-04 00:25 -15.41985 141.71399 38014 ft 530 kts 153°
2026-05-04 00:25 -15.48439 141.75103 38017 ft 531 kts 153°
2026-05-04 00:26 -15.54955 141.78578 38023 ft 530 kts 156°
2026-05-04 00:26 -15.61599 141.81889 38037 ft 529 kts 156°
2026-05-04 00:27 -15.68232 141.85222 38025 ft 530 kts 156°
2026-05-04 00:27 -15.74850 141.88599 38023 ft 530 kts 155°
2026-05-04 00:28 -15.81411 141.91968 38020 ft 530 kts 155°
2026-05-04 00:28 -15.88027 141.95369 38025 ft 531 kts 156°
2026-05-04 00:29 -15.94655 141.98756 38029 ft 531 kts 156°
2026-05-04 00:29 -16.01286 142.02147 38028 ft 531 kts 156°
2026-05-04 00:30 -16.07865 142.05516 38024 ft 531 kts 156°
2026-05-04 00:30 -16.14492 142.08915 38036 ft 531 kts 156°
2026-05-04 00:31 -16.21134 142.12325 38030 ft 533 kts 156°
2026-05-04 00:31 -16.27786 142.15742 38030 ft 533 kts 156°
2026-05-04 00:32 -16.34391 142.19138 38030 ft 533 kts 156°
2026-05-04 00:32 -16.41046 142.22561 38032 ft 533 kts 156°
2026-05-04 00:33 -16.51022 142.27699 38031 ft 534 kts 156°
2026-05-04 00:34 -16.56565 142.30555 38031 ft 535 kts 156°
2026-05-04 00:34 -16.64314 142.34553 38034 ft 535 kts 156°
2026-05-04 00:35 -16.70983 142.37996 38035 ft 535 kts 156°
2026-05-04 00:35 -16.77647 142.41439 38040 ft 535 kts 156°
2026-05-04 00:36 -16.83191 142.44305 38034 ft 535 kts 156°
2026-05-04 00:36 -16.90947 142.48318 38035 ft 535 kts 156°
2026-05-04 00:37 -16.97623 142.51776 38035 ft 535 kts 156°
2026-05-04 00:37 -17.03170 142.54651 38034 ft 535 kts 156°
2026-05-04 00:38 -17.09843 142.58112 38038 ft 536 kts 156°
2026-05-04 00:38 -17.17610 142.62143 38036 ft 537 kts 156°
2026-05-04 00:39 -17.23212 142.65054 38037 ft 537 kts 156°
2026-05-04 00:39 -17.29858 142.68509 38037 ft 537 kts 156°
2026-05-04 00:40 -17.36542 142.71987 38035 ft 537 kts 156°
2026-05-04 00:40 -17.43226 142.75468 38038 ft 537 kts 156°
2026-05-04 00:41 -17.50997 142.79518 38040 ft 537 kts 156°
2026-05-04 00:41 -17.56593 142.82437 38039 ft 536 kts 156°
2026-05-04 00:42 -17.63227 142.85901 38040 ft 536 kts 156°
2026-05-04 00:42 -17.69908 142.89392 38051 ft 537 kts 156°
2026-05-04 00:43 -17.76599 142.92891 38036 ft 538 kts 156°
2026-05-04 00:43 -17.84378 142.96966 38039 ft 538 kts 156°
2026-05-04 00:44 -17.89941 142.99878 38039 ft 538 kts 156°
2026-05-04 00:44 -17.96636 143.03387 38044 ft 537 kts 156°
2026-05-04 00:45 -18.03323 143.06896 38039 ft 538 kts 156°
2026-05-04 00:45 -18.10022 143.10414 38043 ft 539 kts 156°
2026-05-04 00:46 -18.16683 143.13914 38040 ft 539 kts 156°
2026-05-04 00:46 -18.23387 143.17441 38044 ft 539 kts 156°
2026-05-04 00:47 -18.30088 143.20971 38040 ft 539 kts 156°
2026-05-04 00:47 -18.36792 143.24504 38047 ft 539 kts 157°
2026-05-04 00:48 -18.43459 143.28021 38031 ft 540 kts 157°
2026-05-04 00:48 -18.50174 143.31566 38046 ft 540 kts 157°
2026-05-04 00:49 -18.56885 143.35112 38045 ft 540 kts 157°
2026-05-04 00:49 -18.63510 143.38616 38067 ft 540 kts 157°
2026-05-04 00:50 -18.70185 143.42149 38050 ft 541 kts 157°
2026-05-04 00:50 -18.76913 143.45713 38062 ft 541 kts 157°
2026-05-04 00:51 -18.83644 143.49282 38058 ft 541 kts 157°
2026-05-04 00:51 -18.90368 143.52852 38057 ft 541 kts 157°
2026-05-04 00:52 -18.97094 143.56425 38068 ft 541 kts 157°
2026-05-04 00:52 -19.03795 143.59986 38069 ft 543 kts 157°
2026-05-04 00:53 -19.10543 143.63580 38075 ft 543 kts 157°
2026-05-04 00:53 -19.17297 143.67179 38075 ft 544 kts 157°
2026-05-04 00:54 -19.24057 143.70781 38076 ft 544 kts 157°
2026-05-04 00:54 -19.30818 143.74390 38075 ft 545 kts 157°
2026-05-04 00:55 -19.37543 143.77982 38086 ft 545 kts 157°
2026-05-04 00:55 -19.44317 143.81604 38085 ft 545 kts 157°
2026-05-04 00:56 -19.51085 143.85224 38089 ft 545 kts 157°
2026-05-04 00:56 -19.57851 143.88850 38106 ft 545 kts 158°
2026-05-04 00:57 -19.64566 143.92452 38085 ft 544 kts 158°
2026-05-04 00:57 -19.71327 143.96076 38089 ft 544 kts 158°
2026-05-04 00:58 -19.78087 143.99707 38096 ft 544 kts 158°
2026-05-04 00:58 -19.84840 144.03341 38089 ft 544 kts 158°
2026-05-04 00:59 -19.91596 144.06979 38093 ft 544 kts 158°
2026-05-04 00:59 -19.98300 144.10591 38089 ft 544 kts 158°
2026-05-04 01:00 -20.05048 144.14230 38087 ft 544 kts 158°
2026-05-04 01:00 -20.11792 144.17870 38091 ft 544 kts 158°
2026-05-04 01:01 -20.18539 144.21516 38092 ft 544 kts 158°
2026-05-04 01:01 -20.25255 144.25148 38084 ft 545 kts 158°
2026-05-04 01:02 -20.32005 144.28803 38083 ft 544 kts 158°
2026-05-04 01:02 -20.38756 144.32462 38082 ft 544 kts 158°
2026-05-04 01:03 -20.45504 144.36122 38086 ft 544 kts 158°
2026-05-04 01:03 -20.52235 144.39809 38077 ft 546 kts 155°
2026-05-04 01:04 -20.58227 144.44779 38085 ft 555 kts 137°
2026-05-04 01:04 -20.63480 144.50837 38088 ft 557 kts 134°
2026-05-04 01:05 -20.68577 144.57066 38085 ft 557 kts 133°
2026-05-04 01:05 -20.73674 144.63302 38083 ft 557 kts 134°
2026-05-04 01:06 -20.78746 144.69464 38088 ft 557 kts 134°
2026-05-04 01:06 -20.83876 144.75678 38088 ft 557 kts 134°
2026-05-04 01:07 -20.89000 144.81888 38086 ft 557 kts 134°
2026-05-04 01:07 -20.94127 144.88111 38089 ft 558 kts 134°
2026-05-04 01:08 -20.99255 144.94345 38092 ft 558 kts 134°
2026-05-04 01:08 -21.04344 145.00538 38091 ft 558 kts 134°
2026-05-04 01:09 -21.09466 145.06779 38089 ft 558 kts 134°
2026-05-04 01:09 -21.14583 145.13020 38088 ft 558 kts 134°
2026-05-04 01:10 -21.19702 145.19269 38088 ft 558 kts 134°
2026-05-04 01:10 -21.24779 145.25475 38089 ft 558 kts 134°
2026-05-04 01:11 -21.29896 145.31738 38089 ft 559 kts 134°
2026-05-04 01:11 -21.35023 145.38019 38085 ft 560 kts 134°
2026-05-04 01:12 -21.40147 145.44304 38091 ft 560 kts 134°
2026-05-04 01:12 -21.45265 145.50591 38091 ft 559 kts 134°
2026-05-04 01:13 -21.50384 145.56884 38087 ft 559 kts 134°
2026-05-04 01:13 -21.55461 145.63134 38090 ft 559 kts 134°
2026-05-04 01:14 -21.60570 145.69429 38091 ft 559 kts 134°
2026-05-04 01:14 -21.65676 145.75729 38100 ft 559 kts 134°
2026-05-04 01:15 -21.70794 145.82050 38090 ft 561 kts 134°
2026-05-04 01:15 -21.75913 145.88382 38091 ft 561 kts 134°
2026-05-04 01:16 -21.80997 145.94677 38097 ft 561 kts 134°
2026-05-04 01:16 -21.86110 146.01015 38094 ft 561 kts 134°
2026-05-04 01:17 -21.91223 146.07362 38095 ft 561 kts 134°
2026-05-04 01:17 -21.96328 146.13705 38094 ft 560 kts 134°
2026-05-04 01:18 -22.01395 146.20008 38093 ft 560 kts 134°
2026-05-04 01:18 -22.06501 146.26367 38096 ft 562 kts 134°
2026-05-04 01:19 -22.11615 146.32745 38094 ft 562 kts 134°
2026-05-04 01:19 -22.16728 146.39129 38094 ft 562 kts 134°
2026-05-04 01:20 -22.21832 146.45510 38093 ft 562 kts 134°
2026-05-04 01:20 -22.26898 146.51850 38095 ft 562 kts 134°
2026-05-04 01:21 -22.31998 146.58241 38093 ft 562 kts 134°
2026-05-04 01:21 -22.37098 146.64640 38095 ft 562 kts 133°
2026-05-04 01:22 -22.42196 146.71044 38092 ft 562 kts 133°
2026-05-04 01:22 -22.47274 146.77429 38092 ft 565 kts 133°
2026-05-04 01:23 -22.52391 146.83874 38095 ft 565 kts 133°
2026-05-04 01:23 -22.57438 146.90239 38097 ft 564 kts 133°
2026-05-04 01:24 -22.62547 146.96688 38098 ft 564 kts 133°
2026-05-04 01:24 -22.67653 147.03142 38092 ft 564 kts 133°
2026-05-04 01:25 -22.72723 147.09558 38101 ft 564 kts 133°
2026-05-04 01:25 -22.77820 147.16017 38096 ft 564 kts 133°
2026-05-04 01:26 -22.82914 147.22480 38097 ft 565 kts 133°
2026-05-04 01:26 -22.88023 147.28969 38102 ft 566 kts 133°
2026-05-04 01:27 -22.93097 147.35424 38105 ft 566 kts 133°
2026-05-04 01:27 -22.98202 147.41925 38101 ft 565 kts 133°
2026-05-04 01:28 -23.03296 147.48421 38111 ft 565 kts 133°
2026-05-04 01:28 -23.08383 147.54917 38107 ft 565 kts 133°
2026-05-04 01:29 -23.13429 147.61369 38103 ft 564 kts 133°
2026-05-04 01:29 -23.18511 147.67874 38128 ft 565 kts 133°
2026-05-04 01:30 -23.23597 147.74395 38107 ft 566 kts 133°
2026-05-04 01:30 -23.28693 147.80933 38109 ft 566 kts 133°
2026-05-04 01:31 -23.33751 147.87431 38106 ft 567 kts 133°
2026-05-04 01:31 -23.38838 147.93977 38106 ft 566 kts 133°
2026-05-04 01:32 -23.43915 148.00520 38102 ft 565 kts 133°
2026-05-04 01:32 -23.48988 148.07064 38106 ft 565 kts 133°
2026-05-04 01:33 -23.54026 148.13572 38106 ft 565 kts 133°
2026-05-04 01:33 -23.59051 148.20165 38107 ft 567 kts 130°
2026-05-04 01:34 -23.63744 148.27104 38104 ft 569 kts 128°
2026-05-04 01:34 -23.68348 148.34131 38097 ft 569 kts 128°
2026-05-04 01:35 -23.72998 148.41120 38099 ft 569 kts 129°
2026-05-04 01:35 -23.77651 148.48034 38098 ft 569 kts 129°
2026-05-04 01:36 -23.82341 148.54988 38099 ft 568 kts 129°
2026-05-04 01:36 -23.87022 148.61942 38101 ft 568 kts 129°
2026-05-04 01:37 -23.91701 148.68906 38098 ft 568 kts 129°
2026-05-04 01:37 -23.96244 148.75681 38095 ft 568 kts 129°
2026-05-04 01:38 -24.00913 148.82654 38108 ft 569 kts 129°
2026-05-04 01:38 -24.05588 148.89645 38109 ft 569 kts 129°
2026-05-04 01:39 -24.10258 148.96638 38109 ft 569 kts 129°
2026-05-04 01:39 -24.14928 149.03642 38112 ft 570 kts 129°
2026-05-04 01:40 -24.19560 149.10598 38105 ft 568 kts 129°
2026-05-04 01:40 -24.24213 149.17595 38098 ft 568 kts 129°
2026-05-04 01:41 -24.28861 149.24595 38102 ft 568 kts 129°
2026-05-04 01:41 -24.33503 149.31596 38104 ft 568 kts 129°
2026-05-04 01:42 -24.38115 149.38560 38104 ft 568 kts 129°
2026-05-04 01:42 -24.42755 149.45577 38105 ft 568 kts 129°
2026-05-04 01:43 -24.47390 149.52597 38103 ft 568 kts 129°
2026-05-04 01:43 -24.52023 149.59625 38101 ft 568 kts 129°
2026-05-04 01:44 -24.56648 149.66649 38099 ft 567 kts 129°
2026-05-04 01:44 -24.61232 149.73623 38098 ft 567 kts 129°
2026-05-04 01:45 -24.65844 149.80647 38084 ft 566 kts 129°
2026-05-04 01:45 -24.72753 149.91192 38097 ft 566 kts 129°
2026-05-04 01:46 -24.77349 149.98218 38094 ft 566 kts 129°
2026-05-04 01:46 -24.81917 150.05211 38094 ft 567 kts 129°
2026-05-04 01:47 -24.86523 150.12272 38094 ft 568 kts 129°
2026-05-04 01:47 -24.91125 150.19341 38098 ft 568 kts 129°
2026-05-04 01:48 -24.95724 150.26412 38094 ft 568 kts 129°
2026-05-04 01:48 -25.00288 150.33441 38094 ft 568 kts 129°
2026-05-04 01:49 -25.04881 150.40526 38100 ft 568 kts 129°
2026-05-04 01:49 -25.09468 150.47611 38101 ft 568 kts 129°
2026-05-04 01:50 -25.14049 150.54697 38103 ft 567 kts 129°
2026-05-04 01:50 -25.18628 150.61792 38103 ft 567 kts 129°
2026-05-04 01:51 -25.23202 150.68886 38110 ft 568 kts 129°
2026-05-04 01:51 -25.27750 150.75954 38106 ft 569 kts 129°
2026-05-04 01:52 -25.32325 150.83074 38108 ft 568 kts 129°
2026-05-04 01:52 -25.36890 150.90191 38102 ft 567 kts 129°
2026-05-04 01:53 -25.41456 150.97316 38106 ft 567 kts 129°
2026-05-04 01:53 -25.45984 151.04393 38105 ft 567 kts 129°
2026-05-04 01:54 -25.50537 151.11521 38107 ft 567 kts 129°
2026-05-04 01:54 -25.55077 151.18639 38104 ft 567 kts 129°
2026-05-04 01:55 -25.58855 151.24571 38102 ft 567 kts 129°
2026-05-04 01:55 -25.62577 151.30421 38030 ft 564 kts 129°
2026-05-04 01:56 -25.64819 151.33953 37467 ft 561 kts 129°
2026-05-04 01:56 -25.67075 151.37505 36686 ft 563 kts 129°
2026-05-04 01:56 -25.69298 151.41007 36003 ft 564 kts 128°
2026-05-04 01:56 -25.71571 151.44591 35313 ft 564 kts 128°
2026-05-04 01:57 -25.73875 151.48112 34579 ft 562 kts 134°
2026-05-04 01:57 -25.76586 151.51199 33785 ft 558 kts 140°
2026-05-04 01:57 -25.79381 151.54116 32950 ft 559 kts 141°
2026-05-04 01:57 -25.82251 151.56996 32378 ft 554 kts 142°
2026-05-04 01:58 -25.85119 151.59827 31852 ft 549 kts 142°
2026-05-04 01:58 -25.87966 151.62624 31318 ft 544 kts 142°
2026-05-04 01:58 -25.90791 151.65403 30783 ft 541 kts 142°
2026-05-04 01:58 -25.93593 151.68170 30259 ft 538 kts 141°
2026-05-04 01:59 -25.96374 151.70926 29675 ft 534 kts 141°
2026-05-04 01:59 -25.99130 151.73668 29162 ft 529 kts 141°
2026-05-04 01:59 -26.01818 151.76347 28631 ft 524 kts 141°
2026-05-04 01:59 -26.04519 151.79043 28122 ft 519 kts 141°
2026-05-04 02:00 -26.07190 151.81711 27620 ft 514 kts 141°
2026-05-04 02:00 -26.09836 151.84356 27127 ft 509 kts 141°
2026-05-04 02:00 -26.12456 151.86976 26630 ft 504 kts 141°
2026-05-04 02:00 -26.15057 151.89578 26136 ft 500 kts 141°
2026-05-04 02:01 -26.17632 151.92154 25653 ft 496 kts 141°
2026-05-04 02:01 -26.20185 151.94710 25159 ft 492 kts 141°
2026-05-04 02:01 -26.22668 151.97196 24681 ft 488 kts 141°
2026-05-04 02:01 -26.25181 151.99716 24195 ft 484 kts 141°
2026-05-04 02:02 -26.27637 152.02181 23699 ft 480 kts 140°
2026-05-04 02:02 -26.30110 152.04662 23148 ft 476 kts 140°
2026-05-04 02:02 -26.32550 152.07114 22669 ft 470 kts 140°
2026-05-04 02:02 -26.34965 152.09540 22174 ft 465 kts 140°
2026-05-04 02:03 -26.37351 152.11940 21688 ft 459 kts 140°
2026-05-04 02:03 -26.39710 152.14314 21199 ft 454 kts 140°
2026-05-04 02:03 -26.42038 152.16658 20723 ft 449 kts 140°
2026-05-04 02:03 -26.44350 152.18986 20246 ft 445 kts 140°
2026-05-04 02:04 -26.46606 152.21260 19776 ft 441 kts 140°
2026-05-04 02:04 -26.48873 152.23545 19297 ft 438 kts 140°
2026-05-04 02:04 -26.51131 152.25819 18820 ft 435 kts 139°
2026-05-04 02:04 -26.53370 152.28081 18325 ft 432 kts 139°
2026-05-04 02:05 -26.55532 152.30264 17814 ft 428 kts 139°
2026-05-04 02:05 -26.56847 152.31593 17532 ft 425 kts 139°
2026-05-04 02:05 -26.58921 152.33691 17086 ft 420 kts 139°
2026-05-04 02:05 -26.61074 152.35869 16617 ft 415 kts 139°
2026-05-04 02:06 -26.63199 152.38023 16153 ft 411 kts 139°
2026-05-04 02:06 -26.65292 152.40164 15834 ft 405 kts 138°
2026-05-04 02:06 -26.67339 152.42276 15606 ft 407 kts 138°
2026-05-04 02:06 -26.69422 152.44427 15367 ft 407 kts 138°
2026-05-04 02:07 -26.71492 152.46566 15130 ft 404 kts 138°
2026-05-04 02:07 -26.73540 152.48683 14834 ft 397 kts 137°
2026-05-04 02:07 -26.75559 152.50770 14410 ft 394 kts 137°
2026-05-04 02:07 -26.77566 152.52845 13930 ft 391 kts 137°
2026-05-04 02:08 -26.79555 152.54902 13423 ft 387 kts 137°
2026-05-04 02:08 -26.81520 152.56923 12938 ft 382 kts 137°
2026-05-04 02:08 -26.83467 152.58937 12465 ft 379 kts 137°
2026-05-04 02:08 -26.85370 152.60914 11999 ft 377 kts 137°
2026-05-04 02:09 -26.87276 152.62894 11628 ft 370 kts 137°
2026-05-04 02:09 -26.89159 152.64850 11484 ft 369 kts 137°
2026-05-04 02:09 -26.91019 152.66771 11374 ft 369 kts 137°
2026-05-04 02:09 -26.92903 152.68714 11227 ft 368 kts 137°
2026-05-04 02:10 -26.94781 152.70652 10991 ft 367 kts 137°
2026-05-04 02:10 -26.96647 152.72581 10542 ft 363 kts 137°
2026-05-04 02:10 -26.98494 152.74491 10091 ft 359 kts 138°
2026-05-04 02:10 -27.00079 152.76602 9706 ft 354 kts 119°
2026-05-04 02:11 -27.01120 152.79089 9342 ft 351 kts 112°
2026-05-04 02:11 -27.02028 152.81576 8991 ft 349 kts 112°
2026-05-04 02:11 -27.02942 152.84086 8632 ft 345 kts 112°
2026-05-04 02:11 -27.03850 152.86560 8288 ft 341 kts 112°
2026-05-04 02:12 -27.04755 152.89010 7944 ft 338 kts 112°
2026-05-04 02:12 -27.05653 152.91438 7598 ft 335 kts 112°
2026-05-04 02:12 -27.06543 152.93837 7261 ft 333 kts 112°
2026-05-04 02:12 -27.07356 152.96262 6894 ft 329 kts 105°
2026-05-04 02:13 -27.07916 152.98731 6679 ft 326 kts 102°
2026-05-04 02:13 -27.08424 153.01213 6464 ft 326 kts 102°
2026-05-04 02:13 -27.08929 153.03689 6213 ft 325 kts 102°
2026-05-04 02:13 -27.09434 153.06156 6002 ft 324 kts 102°
2026-05-04 02:14 -27.09939 153.08612 5766 ft 323 kts 102°
2026-05-04 02:14 -27.10429 153.11058 5507 ft 320 kts 101°
2026-05-04 02:14 -27.10670 153.13536 5289 ft 316 kts 92°
2026-05-04 02:14 -27.10749 153.15937 5134 ft 297 kts 91°
2026-05-04 02:15 -27.10809 153.18118 4982 ft 270 kts 92°
2026-05-04 02:15 -27.11073 153.20102 4843 ft 246 kts 103°
2026-05-04 02:15 -27.11502 153.21924 4732 ft 242 kts 105°
2026-05-04 02:15 -27.12157 153.23628 4575 ft 234 kts 126°
2026-05-04 02:16 -27.13428 153.24672 4462 ft 225 kts 156°
2026-05-04 02:16 -27.14876 153.25225 4304 ft 216 kts 165°
2026-05-04 02:16 -27.16312 153.25301 4201 ft 199 kts 188°
2026-05-04 02:16 -27.17563 153.24814 4124 ft 189 kts 204°
2026-05-04 02:17 -27.18742 153.24148 4026 ft 189 kts 205°
2026-05-04 02:17 -27.19913 153.23470 3835 ft 190 kts 205°
2026-05-04 02:17 -27.21088 153.22801 3580 ft 189 kts 205°
2026-05-04 02:17 -27.22244 153.22142 3332 ft 189 kts 205°
2026-05-04 02:18 -27.23411 153.21475 3066 ft 188 kts 205°
2026-05-04 02:18 -27.24573 153.20811 2802 ft 187 kts 205°
2026-05-04 02:18 -27.25727 153.20152 2547 ft 186 kts 204°
2026-05-04 02:18 -27.26875 153.19496 2311 ft 184 kts 204°
2026-05-04 02:19 -27.27999 153.18854 2076 ft 176 kts 204°
2026-05-04 02:19 -27.29064 153.18244 1846 ft 167 kts 204°
2026-05-04 02:19 -27.30072 153.17668 1623 ft 158 kts 204°
2026-05-04 02:19 -27.31030 153.17120 1412 ft 150 kts 205°
2026-05-04 02:20 -27.31932 153.16605 1243 ft 142 kts 205°
2026-05-04 02:20 -27.32810 153.16102 1048 ft 141 kts 204°
2026-05-04 02:20 -27.33670 153.15612 873 ft 140 kts 204°
2026-05-04 02:20 -27.34531 153.15108 688 ft 139 kts 205°
2026-05-04 02:21 -27.35399 153.14606 527 ft 142 kts 203°
2026-05-04 02:21 -27.36278 153.14108 328 ft 142 kts 202°
2026-05-04 02:21 -27.37164 153.13607 133 ft 142 kts 203°
2026-05-04 02:21 -27.38037 153.13099 33 ft 135 kts 204°
2026-05-04 02:22 -27.38786 153.12678 27 ft 101 kts 207°
2026-05-04 02:22 -27.39269 153.12401 31 ft 56 kts 207°
2026-05-04 02:22 -27.39511 153.12261 27 ft 20 kts 207°
2026-05-04 02:22 -27.39575 153.12221 26 ft 10 kts 216°
2026-05-04 02:23 -27.39593 153.12152 28 ft 11 kts 286°
2026-05-04 02:23 -27.39555 153.12064 29 ft 14 kts 297°
2026-05-04 02:23 -27.39512 153.11981 30 ft 8 kts 301°
2026-05-04 02:23 -27.39504 153.11915 28 ft 9 kts 245°
2026-05-04 02:24 -27.39559 153.11865 28 ft 11 kts 205°
2026-05-04 02:24 -27.39638 153.11823 27 ft 14 kts 207°
2026-05-04 02:24 -27.39729 153.11770 26 ft 16 kts 207°
2026-05-04 02:24 -27.39833 153.11711 28 ft 18 kts 207°
2026-05-04 02:25 -27.39949 153.11645 27 ft 20 kts 207°
2026-05-04 02:25 -27.40074 153.11573 27 ft 21 kts 207°
2026-05-04 02:25 -27.40211 153.11495 26 ft 23 kts 207°
2026-05-04 02:25 -27.40357 153.11411 28 ft 24 kts 207°
2026-05-04 02:26 -27.40466 153.11349 27 ft 13 kts 207°
2026-05-04 02:26 -27.40531 153.11312 27 ft 10 kts 206°
2026-05-04 02:26 -27.40588 153.11264 28 ft 9 kts 249°
2026-05-04 02:26 -27.40565 153.11194 27 ft 11 kts 299°
2026-05-04 02:27 -27.40553 153.11120 27 ft 10 kts 240°
2026-05-04 02:27 -27.40609 153.11066 29 ft 12 kts 224°
2026-05-04 02:27 -27.40661 153.10985 27 ft 14 kts 239°
2026-05-04 02:27 -27.40695 153.10922 28 ft 4 kts 239°
2026-05-04 02:28 -27.40699 153.10892 25 ft 3 kts 288°
2026-05-04 02:28 -27.40678 153.10870 28 ft 5 kts 324°
2026-05-04 02:28 -27.40655 153.10856 28 ft 2 kts 331°
2026-05-04 02:28 -27.40653 153.10855 29 ft 0 kts 331°
2026-05-04 02:29 -27.40644 153.10849 29 ft 0 kts 331°
2026-05-04 02:29 -27.40643 153.10849 29 ft 0 kts 331°
2026-05-04 02:29 -27.40642 153.10848 29 ft 0 kts 331°